Location: Équennes
(49.7375°N, 1.9622°E)
Time: 05:48:40
(UTC+00:00)

RESURS DK-1 - Visible Passes

Search period start: 30 May 2024 00:00
Search period end: 09 June 2024 00:00
Orbit: 543 x 547 km, 69.9° (Epoch: 29 May)

Date Brightness Start Highest point End Pass type
(mag) Time Alt. Az. Time Alt. Az. Time Alt. Az.
30 May 2.7 01:21:15 10° NW 01:25:07 42° WSW 01:26:39 29° SSW visible
30 May 4.0 23:37:24 10° NNW 23:41:01 29° NE 23:44:22 11° ESE visible
31 May 3.0 01:15:04 10° NW 01:18:48 36° WSW 01:19:56 30° SSW visible
31 May 3.8 23:31:03 10° NNW 23:34:47 34° NE 23:37:43 15° ESE visible
01 Jun 3.2 01:08:53 10° NW 01:12:28 30° WSW 01:13:17 28° SW visible
01 Jun 3.5 23:24:42 10° NNW 23:28:33 39° NE 23:31:08 18° ESE visible
02 Jun 3.5 01:02:43 10° NW 01:06:07 26° WSW 01:06:42 25° WSW visible
02 Jun 5.3 21:43:06 10° NNE 21:43:30 10° NNE 21:43:54 10° NE visible
02 Jun 3.2 23:18:21 10° NNW 23:22:17 45° NE 23:24:36 22° ESE visible
03 Jun 3.7 00:56:36 10° WNW 00:59:46 22° WSW 01:00:10 22° WSW visible
03 Jun 5.1 21:36:02 10° NNE 21:37:20 11° NNE 21:38:38 10° NE visible
03 Jun 2.9 23:12:01 10° NNW 23:16:01 53° NE 23:18:06 25° ESE visible
04 Jun 4.0 00:50:31 10° WNW 00:53:23 19° WSW 00:53:41 19° WSW visible
04 Jun 4.9 21:29:22 10° N 21:31:09 12° NE 21:32:56 10° ENE visible
04 Jun 2.6 23:05:41 10° NNW 23:09:44 62° ENE 23:11:40 29° SE visible
05 Jun 4.2 00:44:29 10° WNW 00:47:00 16° WSW 00:47:14 16° WSW visible
05 Jun 4.8 21:22:47 10° N 21:24:57 14° NE 21:27:07 10° ENE visible
05 Jun 2.4 22:59:21 10° NNW 23:03:25 74° ENE 23:05:15 31° SE visible
06 Jun 4.4 00:38:35 10° WNW 00:40:35 13° WSW 00:40:49 13° WSW visible
06 Jun 4.8 21:16:16 10° N 21:18:45 15° NE 21:21:12 10° ENE visible
06 Jun 2.3 22:53:01 10° NNW 22:57:06 86° NE 22:58:52 33° SSE visible
07 Jun 4.6 00:32:53 10° W 00:34:10 11° WSW 00:34:27 11° WSW visible
07 Jun 4.6 21:09:46 10° N 21:12:31 17° NE 21:15:15 10° E visible
07 Jun 2.2 22:46:41 10° NNW 22:50:46 80° WSW 22:52:31 33° SSE visible
08 Jun 4.4 21:03:17 10° N 21:06:16 19° NE 21:09:14 10° E visible
08 Jun 2.4 22:40:22 10° NW 22:44:25 67° WSW 22:46:12 32° S visible
